www.pogodaiklimat.ru

Погода и климат >> Архив погоды >> Норвегия >> Вега-Валсё


ПОГОДА в Вега-Валсё

  • Прогноз погоды в Вега-Валсё
  • Монитор погоды в Вега-Валсё

АРХИВ ПОГОДЫ в Вега-Валсё

Время (UTC), дата Ветер
(напр.,м/с)
 
Видим.   Явления Облачность Т
(С)
Тd
(С)
f
(%)
Тe
(С)
Тes
(С)
Комфортность P
(гПа)
Po
(гПа)
Тmin
(С)
Tmax
(С)
R
(мм)
R24
(мм)
S
(см)
16 16.08 ЮЗ 8
{13}
н/о н/о +14.2 +8.2 67 +12 +12 1005.6 1004.5
17 16.08 ЮЗ 7
{13}
н/о н/о +14.1 +8.3 68 +12 +12 1005.6 1004.5
18 16.08 ЮЗ 7
{15}
30 км 5/4 600 м
[Cu med, cong Ac cuf Ci fib]
+13.5 +8.4 71 +11 +11 1005.5 1004.4 +11.6 +16.3 0.9
19 16.08 ЮЗ 6
{10}
н/о н/о +13.0 +8.5 74 +11 +11 1005.6 1004.5
20 16.08 Ю 4
{9}
н/о н/о +12.6 +7.5 71 +11 +11 1005.5 1004.4
21 16.08 Ю 2
{5}
н/о н/о +11.8 +6.7 71 +11 +11 1005.6 1004.5
22 16.08 ЮВ 2
{5}
н/о н/о +10.7 +7.8 82 +9 +9 1005.5 1004.4
23 16.08 ЮВ 2
{4}
н/о н/о +10.0 +7.8 86 +8 +8 1005.4 1004.3
00 17.08 ЮВ 1
{10}
н/о н/о +11.4 +6.9 74 +11 +11 1004.8 1003.7
01 17.08 В 2
{2}
н/о н/о +10.4 +8.2 86 +9 +9 1004.5 1003.4
02 17.08 В 2
{3}
н/о н/о +9.8 +8.2 90 +8 +8 1003.9 1002.8
03 17.08 В 2
{3}
70 км 5/4 1500 м
[Cb calv Ac und Ci sp]
+9.6 +8.4 92 +8 +8 1003.6 1002.5
04 17.08 ЮВ 2
{3}
н/о н/о +9.2 +8.4 95 +7 +7 1003.0 1001.9
05 17.08 В 2
{4}
н/о н/о +11.7 +10.1 90 +11 +11 1002.1 1001.0
06 17.08 В 2
{4}
>70 км 6/5 1000 м
[Cu hum Ac cuf Ci fib]
+12.9 +10.4 85 +12 +13 1001.7 1000.6 +8.9 +13.5
07 17.08 В 2
{3}
н/о н/о +13.9 +11.1 83 +13 +13 1001.2 1000.1
08 17.08 В 2
{4}
н/о н/о +15.2 +11.6 79 +15 +15 1000.6 999.5
09 17.08 ЮВ 3
{5}
н/о н/о +17.5 +13.2 76 +18 +18 999.9 998.8
10 17.08 ЮВ 5
{9}
н/о н/о +18.4 +13.1 71 +19 +19 999.1 998.0
11 17.08 ЮВ 4
{9}
н/о н/о +17.8 +13.9 78 +18 +18 998.7 997.6
12 17.08 ЮВ 5
{9}
>70 км 6/5 1000 м
[Cu med, cong Ac cuf Ci fib]
+19.8 +12.3 62 +21 +21 комфорт 998.3 997.2
13 17.08 ЮВ 3
{7}
н/о н/о +19.0 +12.7 67 +20 +20 997.8 996.7
14 17.08 ЮВ 4
{6}
н/о н/о +19.3 +12.8 66 +21 +21 комфорт 996.9 995.8
15 17.08 ЮВ 6
{10}
н/о н/о +19.1 +11.7 62 +20 +20 996.6 995.5
16 17.08 ЮВ 4
{8}
н/о н/о +18.3 +11.6 65 +18 +18 996.3 995.2
17 17.08 Ю 7
{13}
н/о н/о +18.4 +10.5 60 +18 +18 996.0 994.9
18 17.08 ЮВ 5
{13}
20 км осадки на расстоянии {ливн. осадки} 8/6 300 м
[Cu med, cong Ac cuf Ci fib]
+17.5 +10.9 65 +17 +17 995.9 994.8 +12.9 +21.1
19 17.08 ЮВ 5
{10}
н/о н/о +16.5 +11.9 74 +16 +16 995.6 994.5
20 17.08 ЮВ 5
{11}
н/о н/о +16.6 +11.5 72 +16 +16 995.2 994.1
21 17.08 Ю 7
{13}
н/о н/о +17.6 +11.0 65 +17 +17 994.9 993.8
22 17.08 ЮВ 8
{13}
н/о н/о +17.0 +11.1 68 +16 +16 995.0 993.9
23 17.08 ЮВ 7
{12}
н/о н/о +16.6 +11.3 71 +15 +15 995.1 994.0
00 18.08 ЮВ 6
{13}
н/о н/о +16.6 +12.0 74 +16 +16 995.5 994.4
01 18.08 Ю 6
{9}
н/о н/о +16.9 +11.6 71 +16 +16 995.6 994.5
02 18.08 ЮВ 5
{10}
н/о н/о +17.5 +12.2 71 +17 +17 995.7 994.6
03 18.08 ЮВ 4
{8}
>70 км 8/6 600 м
[Cu hum Ac und Ci fib]
+15.8 +12.9 83 +15 +15 995.7 994.6
04 18.08 ЮЗ 2
{7}
н/о н/о +14.1 +13.3 95 +14 +14 995.9 994.8 0.9
05 18.08 З 3
{4}
н/о н/о +14.0 +13.4 96 +13 +13 996.0 994.9 0.2
06 18.08 З 6
{10}
2000 м дождь 8/6 600 м
[Sc Ac cuf Ci sp]
+13.1 +13.1 100 +11 +11 997.0 995.9 +13.1 +17.6 2
07 18.08 З 4
{7}
н/о н/о +12.9 +12.4 97 +11 +11 997.3 996.2 5
08 18.08 ЮЗ 4
{7}
н/о н/о +14.0 +13.1 94 +12 +12 998.4 997.3 0.7
09 18.08 ЮЗ 6
{8}
н/о н/о +13.9 +13.4 97 +12 +12 999.3 998.2 1
10 18.08 ЮЗ 4
{9}
н/о н/о +13.9 +11.6 86 +12 +12 999.7 998.6
11 18.08 ЮЗ 6
{11}
н/о н/о +13.9 +11.3 84 +12 +12 1000.2 999.1
12 18.08 ЮЗ 6
{11}
70 км 6/5 1000 м
[Cu hum Ac cuf Ci fib]
+14.0 +11.9 87 +12 +13 1000.6 999.5 7
13 18.08 ЮЗ 6
{9}
н/о н/о +14.1 +12.2 88 +12 +12 1001.0 999.9
14 18.08 ЮЗ 5
{9}
н/о н/о +14.7 +11.9 83 +13 +13 1001.0 999.9
15 18.08 З 3
{6}
н/о н/о +15.3 +10.9 75 +15 +15 1000.9 999.8
16 18.08 СВ 2
{4}
н/о н/о +14.9 +11.5 80 +15 +15 1000.7 999.6
17 18.08 СВ 2
{4}
н/о н/о +14.7 +11.5 81 +14 +14 1000.7 999.6
18 18.08 СВ 2
{9}
>70 км ясно +13.8 +11.7 87 +13 +13 1000.5 999.4 +12.7 +15.4 7
19 18.08 В 1
{3}
н/о н/о +12.7 +10.9 89 +13 +13 1000.4 999.3
20 18.08 В 1
{2}
н/о н/о +11.6 +11.1 97 +11 +11 1000.2 999.1
21 18.08 ЮВ 1
{2}
н/о н/о +11.3 +10.7 96 +11 +11 1000.0 998.9
22 18.08 ЮВ 1
{2}
н/о н/о +11.1 +11.0 99 +11 +11 999.5 998.4
23 18.08 ЮВ 2
{2}
н/о н/о +10.4 +10.1 98 +9 +9 999.2 998.1
00 19.08 ЮВ 2
{3}
н/о н/о +10.3 +10 +10 998.8 997.7
01 19.08 ЮВ 1
{3}
н/о н/о +10.7 +11 +11 998.1 997.0
02 19.08 ЮВ 2
{3}
н/о н/о +10.6 +10 +10 997.7 996.6
03 19.08 ЮВ 2
{3}
>70 км ясно +10.4 +10 +10 997.3 996.2
04 19.08 В 2
{3}
н/о н/о +9.4 +9.3 99 +8 +8 997.2 996.1
05 19.08 ЮВ 3
{3}
н/о н/о +11.2 +10.6 96 +9 +9 996.7 995.6
06 19.08 В 2
{3}
>70 км ясно +14.5 +13.4 93 +14 +16 996.5 995.4 +8.9 +14.5
07 19.08 В 3
{4}
н/о н/о +16.4 +13.5 83 +16 +16 996.3 995.2
08 19.08 ЮВ 2
{4}
н/о н/о +18.7 +12.0 65 +20 +20 996.1 995.0
09 19.08 ЮВ 2
{5}
н/о н/о +20.0 +12.3 61 +22 +22 комфорт 996.0 994.9
10 19.08 З 2
{4}
н/о н/о +18.7 +12.2 66 +20 +20 996.1 995.0
11 19.08 СЗ 2
{3}
н/о н/о +17.5 +10.9 65 +18 +18 996.4 995.3
12 19.08 З 4
{5}
70 км 5/0
[Cs]
+15.9 +11.9 77 +15 +20 996.8 995.7
13 19.08 З 4
{5}
н/о н/о +16.3 +11.0 71 +16 +16 997.2 996.1
14 19.08 З 3
{5}
н/о н/о +16.2 +11.2 72 +16 +16 997.4 996.3
15 19.08 З 2
{4}
н/о н/о +16.8 +11.9 73 +17 +17 997.7 996.6
16 19.08 С 1
{3}
н/о н/о +16.6 +11.5 72 +17 +17 998.1 997.0
17 19.08 ЮВ 1
{2}
н/о н/о +17.1 +11.6 70 +18 +18 998.3 997.2
18 19.08 З 1
{5}
>70 км ясно +15.4 +10.2 71 +16 +16 998.8 997.7 +14.5 +20.7
19 19.08 З 2
{3}
н/о н/о +14.1 +9.7 75 +14 +14 999.2 998.1
20 19.08 Ю 2
{3}
н/о н/о +12.3 +9.7 84 +11 +11 999.8 998.7
21 19.08 ЮЗ 4
{6}
н/о н/о +13.2 +11.6 90 +11 +11 1000.5 999.4
22 19.08 ЮЗ 4
{6}
н/о н/о +13.3 +10.5 83 +12 +12 1000.8 999.7
23 19.08 ЮЗ 4
{7}
н/о н/о +13.8 +12.5 92 +12 +12 1001.3 1000.2
00 20.08 ЮВ 2
{7}
н/о н/о +11.5 +10.9 96 +10 +10 1001.7 1000.6
01 20.08 ЮЗ 5
{10}
н/о н/о +13.7 +12.9 95 +12 +12 1002.1 1001.0
02 20.08 ЮЗ 4
{7}
н/о н/о +13.2 +11.8 91 +11 +11 1002.5 1001.4
03 20.08 Ю 2
{6}
>70 км 5/0 2000 м
[As trans Ci fib]
+12.3 +10.5 89 +11 +11 1002.9 1001.8
04 20.08 ЮВ 2
{3}
н/о н/о +11.3 +11.2 99 +10 +10 1003.4 1002.3
05 20.08 ЮВ 3
{5}
н/о н/о +13.0 +10.9 87 +12 +12 1003.5 1002.4
06 20.08 Ю 3
{10}
>70 км 6/0 2000 м
[Ac und Ci fib]
+14.3 +11.3 82 +13 +14 1004.0 1002.9 +10.7 +15.4
07 20.08 ЮВ 3
{6}
н/о н/о +14.8 +11.6 81 +14 +14 1004.3 1003.2
08 20.08 Ю 4
{9}
н/о н/о +16.3 +11.0 71 +16 +16 1004.8 1003.7
09 20.08 ЮЗ 7
{11}
н/о н/о +14.9 +12.0 83 +13 +13 1005.5 1004.4
10 20.08 ЮЗ 5
{11}
н/о н/о +16.3 +10.4 68 +15 +15 1005.9 1004.8
11 20.08 ЮЗ 6
{10}
н/о н/о +15.6 +10.8 73 +14 +14 1006.6 1005.5
12 20.08 Ю 4
{11}
5000 м слаб. ливневой дождь 8/6 1000 м
[Cu med, cong Ac cuf Ci fib]
+15.9 +10.9 72 +15 +17 1007.1 1006.0
13 20.08 Ю 5
{10}
н/о н/о +15.0 +10.8 76 +14 +14 1007.6 1006.5
14 20.08 Ю 4
{9}
н/о н/о +15.5 +9.2 66 +15 +15 1007.9 1006.8
15 20.08 Ю 6
{10}
н/о н/о +16.1 +9.3 64 +15 +15 1007.9 1006.8
16 20.08 ЮЗ 7
{14}
н/о н/о +15.4 +10.0 70 +14 +14 1008.1 1007.0
17 20.08 ЮЗ 8
{15}
н/о н/о +14.7 +10.9 78 +12 +12 1008.4 1007.3
18 20.08 ЮЗ 8
{15}
н/о н/о +14.1 +10.9 81 +12 +12 1008.9 1007.8 +14.0 +17.9
19 20.08 ЮЗ 7
{14}
н/о н/о +13.9 +11.1 83 +12 +12 1009.1 1008.0
20 20.08 ЮЗ 7
{14}
н/о н/о +14.3 +9.5 73 +12 +12 1009.4 1008.3
21 20.08 ЮЗ 8
{15}
н/о н/о +14.0 +9.7 75 +12 +12 1009.6 1008.5
22 20.08 ЮЗ 8
{14}
н/о н/о +12.8 +11.4 91 +10 +10 1009.9 1008.8 0.4
23 20.08 ЮЗ 9
{17}
н/о н/о +12.5 +11.6 94 +9 +9 1010.1 1009.0 1
00 21.08 ЮЗ 10
{17}
н/о н/о +12.3 +11.0 92 +9 +9 1010.5 1009.4
01 21.08 ЮЗ 8
{15}
н/о н/о +12.1 +11.8 98 +9 +9 1010.8 1009.7 1
02 21.08 ЮЗ 8
{14}
н/о н/о +12.7 +11.6 93 +10 +10 1011.0 1009.9
03 21.08 ЮЗ 7
{13}
10 км слаб. ливневой дождь 8/6 600 м
[Cu med, cong Ac cuf Ci fib]
+12.7 +12.4 98 +10 +10 1011.3 1010.2 0.7
04 21.08 ЮЗ 7
{12}
н/о н/о +12.8 +12.5 98 +10 +10 1011.5 1010.4
05 21.08 ЮЗ 7
{12}
н/о н/о +13.1 +13.0 99 +10 +10 1011.9 1010.8 0.2
06 21.08 ЮЗ 6
{15}
10 км слаб. ливневой дождь 8/6 300 м
[Cb calv As op Ci sp]
+13.2 +12.4 95 +11 +11 1012.3 1011.2 +12.1 +14.3 4
07 21.08 ЮЗ 8
{13}
н/о н/о +13.0 +12.5 97 +10 +10 1012.9 1011.8 1
08 21.08 ЮЗ 6
{13}
н/о н/о +12.8 +12.8 100 +10 +10 1013.6 1012.5 4
09 21.08 ЮЗ 5
{10}
н/о н/о +12.6 +11.2 91 +10 +10 1014.1 1013.0 0.9
10 21.08 ЮЗ 6
{10}
н/о н/о +13.3 +12.0 92 +11 +11 1014.7 1013.6
11 21.08 ЮЗ 6
{10}
н/о н/о +13.1 +11.7 91 +11 +11 1015.3 1014.2
12 21.08 ЮЗ 6
{13}
10 км ливневой дождь 8/6 300 м
[Cu med, cong As op Ci fib]
+12.9 +12.3 96 +10 +11 1015.8 1014.7 7
13 21.08 ЮЗ 5
{8}
н/о н/о +12.9 +12.8 99 +11 +11 1016.2 1015.1 0.2
14 21.08 ЮЗ 5
{8}
н/о н/о +13.3 +12.5 95 +11 +11 1016.7 1015.6
15 21.08 ЮЗ 5
{8}
н/о н/о +13.7 +12.9 95 +12 +12 1016.8 1015.7
16 21.08 ЮЗ 5
{8}
н/о н/о +13.0 +12.5 97 +11 +11 1017.2 1016.1
17 21.08 ЮЗ 5
{9}
н/о н/о +12.1 +12.0 99 +9 +9 1017.5 1016.4 0.3
18 21.08 ЮЗ 6
{9}
5000 м ливневой дождь 8/6 300 м
[Cu med, cong As op Ci fib]
+12.6 +12.1 97 +10 +10 1017.8 1016.7 +12.1 +14.8 9
19 21.08 З 8
{13}
н/о н/о +12.0 +11.2 95 +9 +9 1018.0 1016.9
20 21.08 З 7
{13}
н/о н/о +11.5 +11.5 100 +8 +8 1018.5 1017.4 1
21 21.08 ЮЗ 7
{11}
н/о н/о +11.9 +9.8 87 +9 +9 1018.8 1017.7 0.5
22 21.08 ЮЗ 7
{10}
н/о н/о +12.0 +8.9 81 +9 +9 1019.0 1017.9
23 21.08 ЮЗ 6
{10}
н/о н/о +11.8 +9.4 85 +9 +9 1019.1 1018.0
00 22.08 ЮЗ 4
{13}
н/о н/о +11.7 +9.3 85 +9 +9 1019.3 1018.2 2
01 22.08 З 5
{8}
н/о н/о +11.4 +10.3 93 +9 +9 1019.4 1018.3
02 22.08 ЮЗ 4
{9}
н/о н/о +10.6 +9.2 91 +8 +8 1019.4 1018.3
03 22.08 ЮЗ 7
{11}
20 км слаб. ливневой дождь 6/5 600 м
[Cu med, cong As op Ci fib]
+9.8 +9.4 97 +6 +6 1019.3 1018.2
04 22.08 ЮЗ 4
{11}
н/о н/о +10.5 +9.7 95 +8 +8 1019.1 1018.0 0.2
05 22.08 Ю 3
{8}
н/о н/о +10.8 +9.9 94 +9 +9 1019.1 1018.0 0.3
06 22.08 ЮЗ 3
{11}
5000 м ливневой дождь 6/5 300 м
[Cu med, cong Ac cuf Ci fib]
+11.3 +8.2 81 +9 +10 1019.1 1018.0 +9.5 +12.6 2
07 22.08 Ю 2
{5}
н/о н/о +13.1 +9.4 78 +12 +12 1019.0 1017.9
08 22.08 Ю 2
{5}
н/о н/о +13.7 +7.9 68 +13 +13 1018.7 1017.6
09 22.08 ЮВ 4
{6}
н/о н/о +14.0 +9.7 75 +13 +13 1018.5 1017.4
10 22.08 н/о
11 22.08 н/о
12 22.08 ЮВ 4
{6}
>70 км 6/5 600 м
[Cu med, cong Ac cuf Ci fib]
+15.6 +7.6 59 +15 +15 1016.8 1015.7
13 22.08 СВ 5
{7}
н/о н/о +14.2 +8.4 68 +13 +13 1016.0 1014.9
14 22.08 СВ 5
{6}
н/о н/о +14.5 +8.9 69 +13 +13 1015.4 1014.3
15 22.08 СВ 3
{6}
н/о н/о +14.4 +10.2 76 +14 +14 1014.9 1013.8
16 22.08 СВ 3
{7}
н/о н/о +13.9 +10.7 81 +13 +13 1013.9 1012.8
17 22.08 В 2
{6}
н/о н/о +14.0 +11.5 85 +13 +13 1013.1 1012.0
18 22.08 ЮВ 2
{7}
>70 км 6/5 1000 м
[Cu hum Ac cuf Ci fib]
+13.5 +10.7 83 +13 +13 1012.5 1011.4 +11.3 +15.8
19 22.08 ЮВ 3
{4}
н/о н/о +12.5 +10.6 88 +11 +11 1012.1 1011.0
20 22.08 ЮВ 3
{4}
н/о н/о +12.7 +9.7 82 +11 +11 1011.6 1010.5
21 22.08 ЮВ 3
{6}
н/о н/о +13.5 +9.4 76 +12 +12 1011.4 1010.3
22 22.08 Ю 5
{8}
н/о н/о +14.4 +11.2 81 +13 +13 1011.5 1010.4
23 22.08 н/о
00 23.08 ЮВ 2
{8}
н/о н/о +12.0 +11.5 97 +11 +11 1011.4 1010.3 0.2
01 23.08 ЮВ 2
{4}
н/о н/о +11.8 +12 +12 1011.1 1010.0 0.1
02 23.08 ЮВ 1
{3}
н/о н/о +11.8 +11.8 100 +11 +11 1010.7 1009.6 1
03 23.08 В 2
{3}
5000 м слаб. дождь 8/6 300 м
[Sc As op Ci sp]
+11.8 +12 +12 1010.6 1009.5 2
04 23.08 Ю 2
{4}
н/о н/о +12.0 +12 +12 1010.5 1009.4 1
05 23.08 ЮЗ 3
{6}
н/о н/о +12.3 +11.7 96 +11 +11 1010.7 1009.6
06 23.08 З 4
{8}
5000 м дождь 8/6 300 м
[Sc Ac cuf Ci fib]
+12.6 +12.1 97 +11 +11 1011.0 1009.9 +11.7 +15.4 4
07 23.08 н/о
08 23.08 ЮЗ 4
{6}
н/о н/о +13.5 +12.7 95 +12 +12 1011.5 1010.4
09 23.08 ЮЗ 3
{5}
н/о н/о +13.6 +12.5 93 +12 +12 1012.0 1010.9
10 23.08 ЮЗ 4
{6}
н/о н/о +13.6 +11.8 89 +12 +12 1012.7 1011.6
11 23.08 ЮЗ 4
{7}
н/о н/о +14.1 +11.8 86 +13 +13 1013.1 1012.0
12 23.08 ЮЗ 4
{8}
>70 км 5/4 600 м
[Cu med, cong Ac cuf Ci fib]
+14.9 +12.4 85 +14 +16 1013.7 1012.6
13 23.08 З 5
{7}
н/о н/о +13.8 +12.5 92 +12 +12 1014.4 1013.3
14 23.08 З 5
{7}
н/о н/о +13.9 +12.1 89 +12 +12 1014.9 1013.8

 

Местоположение метеостанции Вега-Валсё (Норвегия): широта 65.70 долгота 11.85 высота над уровнем моря 4 м.

В архиве по умолчанию представлена погода в Вега-Валсё за последнюю неделю. Архивные данные за месяц целиком и за предыдущие месяцы, начиная с января 2011 года, Вы можете получить, выбрав интересующий диапазон дат из раскрывающегося списка и нажав кнопку "Ввод!".


*Определитесь, кто Вы:
робот инопланетянин человек

Внимание! Время в таблицах - всемирное. Для получения местного времени необходимо прибавить поправку, которая равна 1 ч.

Смотрите также архив погоды в соседних городах и на ближайших метеорологических станциях:

Погода в Хьётте (Норвегия) (30 км)
Погода в Брённёйсунн аэропорту (Норвегия) (32 км)
Погода в Саннесшёэн аэропорту (Норвегия) (40 км)
Погода на Сомна-Квалёйа (Норвегия) (54 км)
Погода в Мосьен аэропорту (Норвегия) (63 км)
Погода в Лаксфорсе (Норвегия) (67 км)
Погода на Маяке Sklinna (Норвегия) (68 км)
Погода в Солвер III (Норвегия) (82 км)
Погода в Маяватн (Норвегия) (92 км)
Погода в Сельджеля (Норвегия) (92 км)

Пояснения к столбцам:

Ветер - указаны скорость ветра в м/с - средняя за 10 мин, порывы в срок и между сроками (в фигурных скобках) и направление, откуда дует ветер: С - северный, СВ - северо-восточный, В - восточный, ЮВ - юго-восточный, Ю - южный, ЮЗ - юго-западный, З - западный, СЗ - северо-западный.
Видимость - горизонтальная дальность видимости в метрах или километрах. При видимости от 1 до 10 км при отсутствии осадков обычно наблюдается дымка, при ухудшении видимости до 1 км и менее - туман. В сухую погоду видимость может ухудшаться дымом, пылью или мглою.
Явления - указаны атмосферные явления, наблюдавшиеся в срок или в последний час перед сроком; фигурными скобками обозначены явления, наблюдавшиеся между сроками (за 1-3 часа до срока); квадратными скобками обозначены град или гололедные отложения с указанием их диаметра в мм.
Облачность - указаны через наклонную черту общая и нижняя облачность в баллах и высота нижней границы облаков в метрах; квадратными скобками обозначены формы облаков: Ci - перистые, Cs - перисто-слоистые, Cc - перисто-кучевые, Ac - высококучевые, As - высокослоистые, Sc - слоисто-кучевые, Ns - слоисто-дождевые, Cu - кучевые, Cb - кучево-дождевые. Подробнее классификацию облаков см. в Атласе облаков (PDF).
T - Температура воздуха - температура, измеренная на высоте 2 м над землей.
Td - Температура точки росы - температура, при понижении до которой содержащийся в воздухе водяной пар достигнет насыщения.
f - Относительная влажность воздуха - влажноcть воздуха, измеренная на высоте 2 м над землей.
Te - Эффективная температура - температура, которую ощущает одетый по сезону человек в тени. Характеристика душности погоды. При расчете учитывается влияние влажности воздуха и скорости ветра на теплоощущения человека.
Tes - Эффективная температура на солнце - температура, которую ощущает человек, с поправкой на солнечный нагрев. Характеристика знойности погоды. Зависит от высоты солнца над горизонтом, облачности и скорости ветра. Ночью, в пасмурную погоду, а также при ветре 12 м/с и более поправка равна нулю.
P - Атмосферное давление - приведенное к уровню моря атмосферное давление.
Po - Атмосферное давление - измеренное на уровне метеостанции атмосферное давление.
Tmin - Минимальная температура - минимум температуры воздуха на высоте 2 м над землей.
Tmax - Максимальная температура - максимум температуры воздуха на высоте 2 м над землей.
R - Количество осадков - Количество выпавших осадков за период времени, мм. При наведении курсора мыши на число - период времени, за который выпало указанное количество осадков.
R24 - Количество осадков - Количество выпавших осадков за 24 часа, мм.
S - Снежный покров - Высота снежного покрова, см. При наведении курсора мыши на число - состояние снежного покрова и степень покрытия местности в баллах.